Kosmos-1641

operational
NORAD ID: 15623 Int'l Des: 1985-023 Owner: GUKOS Country: SU
LEOCIRCULAR

Über Kosmos-1641

Beschreibung wird geladen...

Live-Position

3D-Globus wird geladen...

Nächste Überflüge

Höhenverlauf

Altitude vs Time

uPlot chart will show altitude changes over time

Zweizeiliger Elementsatz

1 15623U 85023G 26061.14720001 -.00000004 00000-0 69639-4 0 9997
2 15623 74.0595 339.5254 0042938 80.8771 347.4703 12.54560936875309
Epoch: 2. März 2026 • Age: 36 hours

Aktueller Status

Höhe 1428.0 km
Geschwindigkeit 7.16 km/s
Subsatellitenpunkt 24.00°N, 6.17°E
Startdatum 21. März 1985
Alter 40.9 years
Typ other

Technische Details

Klassifizierung Payload
Masse 60.00 kg
Trockenmasse 60.00 kg
Gesamtmasse 60.00 kg
Länge 0.80 m
Durchmesser 0.80 m
Spannweite 0.80 m
Form Poly
Hersteller NPOPM
Bus-Typ Strela-1 11F625
Phasenstatus In Orbit
Besitzer/Staat GUKOS/SU

Große Konstellationen

Loading constellations...